Location: *
(57.8420°S, 159.8600°W)
Time: 13:01:10
(UTC+00:00)

ATLAS 3B R/B - Pass Details

Date: 18 May 2021
Orbit: 1006 x 1189 km, 63.8° (Epoch: 17 June)

Event Time Altitude Azimuth Distance (km) Brightness Sun altitude
Rises 03:27:22 0° 352° (N) 4,081 6.2 -7.8°
Reaches altitude 10° 03:30:23 10° 0° (N) 3,116 5.5 -8.2°
Maximum altitude 03:36:53 34° 61° (ENE) 1,848 3.7 -9.0°
Enters shadow 03:42:55 11° 120° (ESE) 2,949 4.3 -9.7°
